STARLINK-1131, 45047

Orbit data source: Space-Track

STARLINK-1131, 45047 is a payload satellite owned by SpaceX/Seattle (US) in LEO that was launched on Wed, 29 Jan 2020 UTC via an FALCON 9 launch vehicle from the Air Force Eastern Test Range (AFETR). Payload-class satellites include a variety of spacecraft equipped with specific instruments for various scientific and technological missions. These include communications satellites like Starlink; space stations such as the ISS; scientific satellites like the Hubble; Earth observation satellites from companies like Planet Labs, Umbra, and HawkEye 360; GPS; miniature CubeSats for education and research; and military/defense satellites.

Loading next visibility...
Identifier
45047, 2020-006D
Orbit
LEO
Country
Flag of USUS
Related business
Manufacturer
SpaceX/Seattle
Mission
Operational Commercial Communications
Bus & Motor
STARLINK, Unknown motor
Mass
260 kg wet, ~248 kg dry
Launch date (UTC)
2020-01-29 (6 years ago)
Launch vehicle
FALCON 9
Launch site
Air Force Eastern Test Range (AFETR)
Object type
Payload
Rocket body
Debris
Shape & HBR
Box + 1 Pan, 4.4 m
Radar Cross Section
13.562 m², Large (>1 m²)

Expand to show TLE details & history
Last TLE update: 23 hours ago

TLE from 23 hours ago
0 STARLINK-1131
1 45047U 20006D   25261.19384708 -.00002048  00000-0 -11866-3 0  9995
2 45047  53.0557 341.5238 0001114  83.9617 276.1499 15.06386808310450
Epoch: 2025-09-18T04:39Z
TLE epoch observation values (Epoch: 2025-09-18T04:39:08.387Z)
Latitude
-0.00003°
Longitude
-85.62012°
Altitude
548.049 km
Speed
7.589 km/s
True Right ascension
22h 46m 05s
True Declination
0° 00' 00"
Sunlit
Object was in full shadow at epoch
Visualization orbit readout
Latitude
Unknown
Longitude
Unknown
Altitude
Unknown
Speed
Unknown
Apparent Right ascension
Unknown
Apparent Declination
Unknown
Sunlit
N/A
Visualization observer readout
Local Sidereal Time
21:01:48
Azimuth
Unknown
Elevation
Unknown
Doppler factor
Unknown
Orbital elements
Apogee altitude
548.294 km
Perigee altitude
546.751 km
Semi-major axis
6,925.66 km
Eccentricity
0.00011
Inclination
53.0557°
RAAN
341.5238°
Arg. of periapsis
83.9617°
True anomaly
276.13721°
Mean anomaly
276.1499°
Eccentric anomaly
276.14355°
Mean motion
3.76575 °/min
Orbital period
95.6 mins
BSTAR
-0.00011866
Loading maneuver chart data...
Computing Atmospheric mass density...

Documentation

Showing up to 5 results
|